Location: Newark
(34.5992°S, 58.3747°W)
Time: 20:05:12
(UTC+00:00)

STARLINK 1043 - Pass Details

Date: 08 December 2019
Orbit: 548 x 551 km, 53.0° (Epoch: 18 January)

Event Time Altitude Azimuth Distance (km) Brightness Sun altitude
Rises 23:54:07 0° 237° (WSW) 2,774 9.4 -10.8°
Reaches altitude 10° 23:56:37 10° 248° (WSW) 1,859 7.7 -11.2°
Maximum altitude 00:00:13 28° 307° (NW) 1,071 5.2 -11.8°
Drops below altitude 10° 00:03:45 10° 6° (N) 1,820 5.9 -12.3°
Enters shadow 00:03:50 10° 7° (N) 1,849 5.9 -12.3°
